Time,TemperatureF,DewpointF,PressureIn,WindDirection,WindDirectionDegrees,WindSpeedMPH,WindSpeedGustMPH,Humidity,HourlyPrecipIn,Conditions,Clouds,dailyrainin,SoftwareType,DateUTC
2013-06-24 00:01:00,72.7,67.9,30.03,SW,236,6.0,8.0,85,0.00,,,0.00,WeatherCatV1.02B3,2013-06-24 04:01:00,
2013-06-24 00:06:00,72.7,67.9,30.03,SSE,148,0.0,7.0,85,0.00,,,0.00,WeatherCatV1.02B3,2013-06-24 04:06:00,
2013-06-24 00:11:00,72.6,67.8,30.03,SSW,211,5.0,9.0,85,0.00,,,0.00,WeatherCatV1.02B3,2013-06-24 04:11:00,
2013-06-24 00:16:00,72.6,68.2,30.03,SSW,204,5.0,7.0,86,0.00,,,0.00,WeatherCatV1.02B3,2013-06-24 04:16:00,
2013-06-24 00:21:00,72.5,68.1,30.03,SSW,202,0.0,5.0,86,0.00,,,0.00,WeatherCatV1.02B3,2013-06-24 04:21:00,
2013-06-24 00:26:00,72.4,68.0,30.03,SSW,210,5.0,10.0,86,0.00,,,0.00,WeatherCatV1.02B3,2013-06-24 04:26:00,
2013-06-24 00:31:00,72.4,68.0,30.03,WSW,248,11.0,11.0,86,0.00,,,0.00,WeatherCatV1.02B3,2013-06-24 04:31:00,
2013-06-24 00:36:00,72.3,67.9,30.03,SSW,211,0.0,0.0,86,0.00,,,0.00,WeatherCatV1.02B3,2013-06-24 04:36:00,
2013-06-24 00:41:00,72.2,67.8,30.03,SSW,212,8.0,10.0,86,0.00,,,0.00,WeatherCatV1.02B3,2013-06-24 04:41:00,
2013-06-24 00:46:00,72.1,68.0,30.03,SSW,200,2.0,9.0,87,0.00,,,0.00,WeatherCatV1.02B3,2013-06-24 04:46:00,
2013-06-24 00:51:00,72.1,68.0,30.02,SW,234,0.0,10.0,87,0.00,,,0.00,WeatherCatV1.02B3,2013-06-24 04:51:00,
2013-06-24 00:56:00,71.9,67.8,30.02,SSE,167,0.0,8.0,87,0.00,,,0.00,WeatherCatV1.02B3,2013-06-24 04:56:00,
2013-06-24 01:01:00,71.8,68.0,30.02,SW,220,8.0,9.0,88,0.00,,,0.00,WeatherCatV1.02B3,2013-06-24 05:01:00,
2013-06-24 01:06:00,71.8,68.0,30.02,South,175,7.0,9.0,88,0.00,,,0.00,WeatherCatV1.02B3,2013-06-24 05:06:00,
2013-06-24 01:11:00,71.7,67.9,30.02,SSW,192,8.0,11.0,88,0.00,,,0.00,WeatherCatV1.02B3,2013-06-24 05:11:00,
2013-06-24 01:16:00,71.7,67.9,30.02,SW,235,2.0,6.0,88,0.00,,,0.00,WeatherCatV1.02B3,2013-06-24 05:16:00,
2013-06-24 01:22:00,71.7,67.9,30.03,WNW,284,2.0,4.0,88,0.00,,,0.00,WeatherCatV1.02B3,2013-06-24 05:22:00,
2013-06-24 01:27:00,71.6,67.8,30.03,South,169,1.0,3.0,88,0.00,,,0.00,WeatherCatV1.02B3,2013-06-24 05:27:00,
2013-06-24 01:32:00,71.6,68.2,30.03,West,276,0.0,5.0,89,0.00,,,0.00,WeatherCatV1.02B3,2013-06-24 05:32:00,
2013-06-24 01:37:00,71.5,68.1,30.03,SW,236,1.0,3.0,89,0.00,,,0.00,WeatherCatV1.02B3,2013-06-24 05:37:00,
2013-06-24 01:42:00,71.4,68.0,30.03,SSW,209,0.0,0.0,89,0.00,,,0.00,WeatherCatV1.02B3,2013-06-24 05:42:00,
2013-06-24 01:47:00,71.3,67.9,30.02,West,274,0.0,4.0,89,0.00,,,0.00,WeatherCatV1.02B3,2013-06-24 05:47:00,
2013-06-24 01:52:00,71.3,67.9,30.02,SW,236,0.0,6.0,89,0.00,,,0.00,WeatherCatV1.02B3,2013-06-24 05:52:00,
2013-06-24 01:57:00,71.1,68.0,30.02,SSW,194,0.0,3.0,90,0.00,,,0.00,WeatherCatV1.02B3,2013-06-24 05:57:00,
2013-06-24 02:02:00,71.1,68.0,30.02,SW,224,3.0,4.0,90,0.00,,,0.00,WeatherCatV1.02B3,2013-06-24 06:02:00,
2013-06-24 02:07:00,70.9,67.8,30.01,SW,221,4.0,4.0,90,0.00,,,0.00,WeatherCatV1.02B3,2013-06-24 06:07:00,
2013-06-24 02:12:00,70.8,67.7,30.01,SSW,213,0.0,6.0,90,0.00,,,0.00,WeatherCatV1.02B3,2013-06-24 06:12:00,
2013-06-24 02:17:00,70.7,67.9,30.01,SW,234,4.0,4.0,91,0.00,,,0.00,WeatherCatV1.02B3,2013-06-24 06:17:00,
2013-06-24 02:22:00,70.7,67.9,30.01,SW,232,3.0,3.0,91,0.00,,,0.00,WeatherCatV1.02B3,2013-06-24 06:22:00,
2013-06-24 02:27:00,70.6,67.8,30.01,SW,229,1.0,6.0,91,0.00,,,0.00,WeatherCatV1.02B3,2013-06-24 06:27:00,
2013-06-24 02:32:00,70.4,67.6,30.01,South,169,4.0,7.0,91,0.00,,,0.00,WeatherCatV1.02B3,2013-06-24 06:32:00,
2013-06-24 02:37:00,70.4,67.6,30.01,West,262,0.0,6.0,91,0.00,,,0.00,WeatherCatV1.02B3,2013-06-24 06:37:00,
2013-06-24 02:42:00,70.2,67.8,30.01,WSW,248,1.0,8.0,92,0.00,,,0.00,WeatherCatV1.02B3,2013-06-24 06:42:00,
2013-06-24 02:47:00,70.2,67.8,30.01,WSW,257,6.0,6.0,92,0.00,,,0.00,WeatherCatV1.02B3,2013-06-24 06:47:00,
2013-06-24 02:52:00,70.1,67.7,30.01,SSW,210,1.0,5.0,92,0.00,,,0.00,WeatherCatV1.02B3,2013-06-24 06:52:00,
2013-06-24 02:57:00,70.1,67.7,30.01,WSW,238,0.0,1.0,92,0.00,,,0.00,WeatherCatV1.02B3,2013-06-24 06:57:00,
2013-06-24 03:02:00,70.0,67.6,30.01,WSW,246,2.0,6.0,92,0.00,,,0.00,WeatherCatV1.02B3,2013-06-24 07:02:00,
2013-06-24 03:07:00,70.0,67.9,30.01,SSW,207,3.0,10.0,93,0.00,,,0.00,WeatherCatV1.02B3,2013-06-24 07:07:00,
2013-06-24 03:12:00,70.0,67.9,30.01,SW,220,2.0,2.0,93,0.00,,,0.00,WeatherCatV1.02B3,2013-06-24 07:12:00,
2013-06-24 03:17:00,69.9,67.8,30.01,South,183,0.0,5.0,93,0.00,,,0.00,WeatherCatV1.02B3,2013-06-24 07:17:00,
2013-06-24 03:22:00,69.9,67.5,30.01,WSW,238,5.0,7.0,92,0.00,,,0.00,WeatherCatV1.02B3,2013-06-24 07:22:00,
2013-06-24 03:27:00,69.8,67.7,30.01,SW,221,2.0,8.0,93,0.00,,,0.00,WeatherCatV1.02B3,2013-06-24 07:27:00,
2013-06-24 03:32:00,69.8,67.7,30.01,SSW,210,2.0,5.0,93,0.00,,,0.00,WeatherCatV1.02B3,2013-06-24 07:32:00,
2013-06-24 03:37:00,69.7,67.6,30.01,WSW,244,5.0,5.0,93,0.00,,,0.00,WeatherCatV1.02B3,2013-06-24 07:37:00,
2013-06-24 03:42:00,69.8,67.7,30.01,WSW,240,0.0,6.0,93,0.00,,,0.00,WeatherCatV1.02B3,2013-06-24 07:42:00,
2013-06-24 03:47:00,69.8,67.7,30.01,WNW,294,0.0,1.0,93,0.00,,,0.00,WeatherCatV1.02B3,2013-06-24 07:47:00,
2013-06-24 03:52:00,69.8,67.7,30.01,SW,217,0.0,3.0,93,0.00,,,0.00,WeatherCatV1.02B3,2013-06-24 07:52:00,
2013-06-24 03:57:00,69.7,67.6,30.00,WSW,244,0.0,5.0,93,0.00,,,0.00,WeatherCatV1.02B3,2013-06-24 07:57:00,
2013-06-24 04:02:00,69.7,67.6,30.00,WNW,299,0.0,5.0,93,0.00,,,0.00,WeatherCatV1.02B3,2013-06-24 08:02:00,
2013-06-24 04:07:00,69.7,67.6,30.00,WNW,299,0.0,0.0,93,0.00,,,0.00,WeatherCatV1.02B3,2013-06-24 08:07:00,
2013-06-24 04:12:00,69.6,67.5,30.00,West,260,0.0,2.0,93,0.00,,,0.00,WeatherCatV1.02B3,2013-06-24 08:12:00,
2013-06-24 04:17:00,69.7,67.6,30.00,SW,233,1.0,4.0,93,0.00,,,0.00,WeatherCatV1.02B3,2013-06-24 08:17:00,
2013-06-24 04:22:00,69.6,67.5,30.00,WSW,255,0.0,1.0,93,0.00,,,0.00,WeatherCatV1.02B3,2013-06-24 08:22:00,
2013-06-24 04:27:00,69.5,67.4,30.00,WSW,254,0.0,0.0,93,0.00,,,0.00,WeatherCatV1.02B3,2013-06-24 08:27:00,
2013-06-24 04:32:00,69.4,67.3,29.99,WSW,252,0.0,0.0,93,0.00,,,0.00,WeatherCatV1.02B3,2013-06-24 08:32:00,
2013-06-24 04:37:00,69.3,67.2,29.99,SE,143,2.0,5.0,93,0.00,,,0.00,WeatherCatV1.02B3,2013-06-24 08:37:00,
2013-06-24 04:41:00,69.3,67.5,29.99,SSW,213,0.0,0.0,94,0.00,,,0.00,WeatherCatV1.02B3,2013-06-24 08:41:00,
2013-06-24 04:46:00,69.3,67.5,29.99,SSW,193,3.0,5.0,94,0.00,,,0.00,WeatherCatV1.02B3,2013-06-24 08:46:00,
2013-06-24 04:51:00,69.4,67.6,29.99,SW,223,2.0,7.0,94,0.00,,,0.00,WeatherCatV1.02B3,2013-06-24 08:51:00,
2013-06-24 04:56:00,69.5,67.7,29.99,SSW,212,3.0,5.0,94,0.00,,,0.00,WeatherCatV1.02B3,2013-06-24 08:56:00,
2013-06-24 05:01:00,69.5,67.7,29.99,West,259,3.0,5.0,94,0.00,,,0.00,WeatherCatV1.02B3,2013-06-24 09:01:00,
2013-06-24 05:06:00,69.5,67.7,29.99,SW,223,3.0,9.0,94,0.00,,,0.00,WeatherCatV1.02B3,2013-06-24 09:06:00,
2013-06-24 05:11:00,69.6,67.8,29.99,SSW,205,0.0,0.0,94,0.00,,,0.00,WeatherCatV1.02B3,2013-06-24 09:11:00,
2013-06-24 05:16:00,69.6,67.8,29.99,SSW,198,0.0,6.0,94,0.00,,,0.00,WeatherCatV1.02B3,2013-06-24 09:16:00,
2013-06-24 05:20:00,69.6,67.8,29.99,South,191,3.0,5.0,94,0.00,,,0.00,WeatherCatV1.02B3,2013-06-24 09:20:00,
2013-06-24 05:25:00,69.7,67.9,29.99,WNW,286,0.0,3.0,94,0.00,,,0.00,WeatherCatV1.02B3,2013-06-24 09:25:00,
2013-06-24 05:30:00,69.7,67.9,29.99,SW,229,0.0,0.0,94,0.00,,,0.00,WeatherCatV1.02B3,2013-06-24 09:30:00,
2013-06-24 05:35:00,69.6,67.8,29.99,WSW,240,0.0,0.0,94,0.00,,,0.00,WeatherCatV1.02B3,2013-06-24 09:35:00,
2013-06-24 05:40:00,69.6,67.8,29.99,West,267,0.0,6.0,94,0.00,,,0.00,WeatherCatV1.02B3,2013-06-24 09:40:00,
2013-06-24 05:45:00,69.5,67.7,29.99,SW,225,0.0,4.0,94,0.00,,,0.00,WeatherCatV1.02B3,2013-06-24 09:45:00,
2013-06-24 05:50:00,69.6,67.8,29.99,SW,225,0.0,2.0,94,0.00,,,0.00,WeatherCatV1.02B3,2013-06-24 09:50:00,
2013-06-24 05:55:00,69.6,67.8,29.99,SW,225,2.0,5.0,94,0.00,,,0.00,WeatherCatV1.02B3,2013-06-24 09:55:00,
2013-06-24 06:00:00,69.6,67.8,29.99,SW,225,0.0,0.0,94,0.00,,,0.00,WeatherCatV1.02B3,2013-06-24 10:00:00,
2013-06-24 06:05:00,69.6,67.8,29.99,SW,225,0.0,2.0,94,0.00,,,0.00,WeatherCatV1.02B3,2013-06-24 10:05:00,
2013-06-24 06:10:00,69.6,67.8,29.99,SW,225,0.0,1.0,94,0.00,,,0.00,WeatherCatV1.02B3,2013-06-24 10:10:00,
2013-06-24 06:15:00,69.7,67.9,29.99,SW,225,0.0,4.0,94,0.00,,,0.00,WeatherCatV1.02B3,2013-06-24 10:15:00,
2013-06-24 06:20:00,69.9,68.1,29.99,SW,227,3.0,6.0,94,0.00,,,0.00,WeatherCatV1.02B3,2013-06-24 10:20:00,
2013-06-24 06:25:00,70.2,68.4,30.00,SW,217,4.0,7.0,94,0.00,,,0.00,WeatherCatV1.02B3,2013-06-24 10:25:00,
2013-06-24 06:30:00,70.4,68.6,29.99,SW,224,0.0,5.0,94,0.00,,,0.00,WeatherCatV1.02B3,2013-06-24 10:30:00,
2013-06-24 06:35:00,70.7,68.9,29.99,SSW,208,2.0,5.0,94,0.00,,,0.00,WeatherCatV1.02B3,2013-06-24 10:35:00,
2013-06-24 06:40:00,70.9,69.1,30.00,SW,233,4.0,5.0,94,0.00,,,0.00,WeatherCatV1.02B3,2013-06-24 10:40:00,
2013-06-24 06:45:00,71.2,69.1,30.00,SW,217,1.0,1.0,93,0.00,,,0.00,WeatherCatV1.02B3,2013-06-24 10:45:00,
2013-06-24 06:50:00,71.3,69.2,30.00,SW,214,0.0,0.0,93,0.00,,,0.00,WeatherCatV1.02B3,2013-06-24 10:50:00,
2013-06-24 06:55:00,71.5,69.4,30.00,SSW,198,6.0,8.0,93,0.00,,,0.00,WeatherCatV1.02B3,2013-06-24 10:55:00,
2013-06-24 07:00:00,71.7,69.6,30.00,West,281,2.0,5.0,93,0.00,,,0.00,WeatherCatV1.02B3,2013-06-24 11:00:00,
2013-06-24 07:05:00,71.9,69.4,29.99,SSW,212,0.0,5.0,92,0.00,,,0.00,WeatherCatV1.02B3,2013-06-24 11:05:00,
2013-06-24 07:10:00,72.1,70.0,29.99,WNW,290,2.0,6.0,93,0.00,,,0.00,WeatherCatV1.02B3,2013-06-24 11:10:00,
2013-06-24 07:15:00,72.3,69.8,30.00,WNW,282,0.0,3.0,92,0.00,,,0.00,WeatherCatV1.02B3,2013-06-24 11:15:00,
2013-06-24 07:20:00,72.6,70.1,30.00,West,279,3.0,6.0,92,0.00,,,0.00,WeatherCatV1.02B3,2013-06-24 11:20:00,
2013-06-24 07:25:00,72.9,70.4,30.00,WNW,284,4.0,6.0,92,0.00,,,0.00,WeatherCatV1.02B3,2013-06-24 11:25:00,
2013-06-24 07:30:00,73.2,70.4,30.00,West,269,2.0,3.0,91,0.00,,,0.00,WeatherCatV1.02B3,2013-06-24 11:30:00,
2013-06-24 07:35:00,73.5,70.7,30.00,West,263,4.0,12.0,91,0.00,,,0.00,WeatherCatV1.02B3,2013-06-24 11:35:00,
2013-06-24 07:40:00,73.9,70.8,30.00,West,281,5.0,7.0,90,0.00,,,0.00,WeatherCatV1.02B3,2013-06-24 11:40:00,
2013-06-24 07:45:00,74.3,70.8,30.00,SW,232,3.0,5.0,89,0.00,,,0.00,WeatherCatV1.02B3,2013-06-24 11:45:00,
2013-06-24 07:50:00,74.8,71.0,30.00,SW,235,0.0,4.0,88,0.00,,,0.00,WeatherCatV1.02B3,2013-06-24 11:50:00,
2013-06-24 07:55:00,75.2,71.1,30.00,West,275,4.0,8.0,87,0.00,,,0.00,WeatherCatV1.02B3,2013-06-24 11:55:00,
2013-06-24 08:00:00,75.7,71.5,30.00,WNW,301,4.0,6.0,87,0.00,,,0.00,WeatherCatV1.02B3,2013-06-24 12:00:00,
2013-06-24 08:05:00,76.1,71.6,30.00,WNW,284,7.0,7.0,86,0.00,,,0.00,WeatherCatV1.02B3,2013-06-24 12:05:00,
2013-06-24 08:10:00,76.5,71.6,29.99,WNW,285,1.0,8.0,85,0.00,,,0.00,WeatherCatV1.02B3,2013-06-24 12:10:00,
2013-06-24 08:15:00,77.1,71.5,30.00,West,269,1.0,8.0,83,0.00,,,0.00,WeatherCatV1.02B3,2013-06-24 12:15:00,
2013-06-24 08:20:00,77.4,71.8,30.00,NW,305,0.0,6.0,83,0.00,,,0.00,WeatherCatV1.02B3,2013-06-24 12:20:00,
2013-06-24 08:25:00,77.6,71.7,29.99,WNW,293,5.0,5.0,82,0.00,,,0.00,WeatherCatV1.02B3,2013-06-24 12:25:00,
2013-06-24 08:30:00,78.0,72.0,29.99,West,279,3.0,4.0,82,0.00,,,0.00,WeatherCatV1.02B3,2013-06-24 12:30:00,
2013-06-24 08:35:00,78.3,72.3,29.99,WSW,241,0.0,1.0,82,0.00,,,0.00,WeatherCatV1.02B3,2013-06-24 12:35:00,
2013-06-24 08:40:00,78.5,71.8,29.99,WNW,289,1.0,8.0,80,0.00,,,0.00,WeatherCatV1.02B3,2013-06-24 12:40:00,
2013-06-24 08:45:00,78.9,72.2,29.99,WNW,284,4.0,6.0,80,0.00,,,0.00,WeatherCatV1.02B3,2013-06-24 12:45:00,
2013-06-24 08:50:00,79.3,71.8,29.99,West,279,4.0,8.0,78,0.00,,,0.00,WeatherCatV1.02B3,2013-06-24 12:50:00,
2013-06-24 08:55:00,79.8,72.7,29.99,NW,311,0.0,3.0,79,0.00,,,0.00,WeatherCatV1.02B3,2013-06-24 12:55:00,
2013-06-24 09:00:00,80.6,72.7,29.99,WNW,285,3.0,5.0,77,0.00,,,0.00,WeatherCatV1.02B3,2013-06-24 13:00:00,
2013-06-24 09:05:00,81.1,72.4,29.99,West,279,0.0,10.0,75,0.00,,,0.00,WeatherCatV1.02B3,2013-06-24 13:05:00,
2013-06-24 09:10:00,81.3,72.2,29.99,West,275,9.0,11.0,74,0.00,,,0.00,WeatherCatV1.02B3,2013-06-24 13:10:00,
2013-06-24 09:15:00,81.3,71.8,29.99,WNW,303,3.0,10.0,73,0.00,,,0.00,WeatherCatV1.02B3,2013-06-24 13:15:00,
2013-06-24 09:20:00,81.4,71.1,29.99,West,279,0.0,9.0,71,0.00,,,0.00,WeatherCatV1.02B3,2013-06-24 13:20:00,
2013-06-24 09:25:00,81.6,72.1,29.99,West,262,0.0,7.0,73,0.00,,,0.00,WeatherCatV1.02B3,2013-06-24 13:25:00,
2013-06-24 09:30:00,82.3,71.9,29.99,West,279,0.0,8.0,71,0.00,,,0.00,WeatherCatV1.02B3,2013-06-24 13:30:00,
2013-06-24 09:35:00,82.4,72.0,29.99,West,261,0.0,8.0,71,0.00,,,0.00,WeatherCatV1.02B3,2013-06-24 13:35:00,
2013-06-24 09:40:00,82.4,71.2,29.99,West,268,7.0,7.0,69,0.00,,,0.00,WeatherCatV1.02B3,2013-06-24 13:40:00,
2013-06-24 09:45:00,82.4,72.4,29.98,WNW,285,0.0,3.0,72,0.00,,,0.00,WeatherCatV1.02B3,2013-06-24 13:45:00,
2013-06-24 09:50:00,82.9,72.5,29.98,WNW,292,0.0,5.0,71,0.00,,,0.00,WeatherCatV1.02B3,2013-06-24 13:50:00,
2013-06-24 09:55:00,83.4,72.1,29.98,WSW,258,2.0,10.0,69,0.00,,,0.00,WeatherCatV1.02B3,2013-06-24 13:55:00,
2013-06-24 10:00:00,83.5,71.8,29.98,West,270,5.0,10.0,68,0.00,,,0.00,WeatherCatV1.02B3,2013-06-24 14:00:00,
2013-06-24 10:05:00,83.6,72.3,29.98,West,278,5.0,8.0,69,0.00,,,0.00,WeatherCatV1.02B3,2013-06-24 14:05:00,
2013-06-24 10:10:00,83.9,72.2,29.98,West,275,6.0,9.0,68,0.00,,,0.00,WeatherCatV1.02B3,2013-06-24 14:10:00,
2013-06-24 10:15:00,84.1,72.8,29.97,West,279,3.0,6.0,69,0.00,,,0.00,WeatherCatV1.02B3,2013-06-24 14:15:00,
2013-06-24 10:20:00,84.3,72.1,29.97,West,266,6.0,12.0,67,0.00,,,0.00,WeatherCatV1.02B3,2013-06-24 14:20:00,
2013-06-24 10:25:00,84.2,72.5,29.97,SW,232,4.0,7.0,68,0.00,,,0.00,WeatherCatV1.02B3,2013-06-24 14:25:00,
2013-06-24 10:30:00,84.5,73.2,29.97,WNW,290,3.0,6.0,69,0.00,,,0.00,WeatherCatV1.02B3,2013-06-24 14:30:00,
2013-06-24 10:35:00,85.0,72.3,29.97,WSW,254,5.0,9.0,66,0.00,,,0.00,WeatherCatV1.02B3,2013-06-24 14:35:00,
2013-06-24 10:40:00,85.1,72.0,29.97,West,278,4.0,6.0,65,0.00,,,0.00,WeatherCatV1.02B3,2013-06-24 14:40:00,
2013-06-24 10:45:00,85.0,73.2,29.97,SSW,205,0.0,8.0,68,0.00,,,0.00,WeatherCatV1.02B3,2013-06-24 14:45:00,
2013-06-24 10:50:00,85.4,72.3,29.97,West,281,3.0,5.0,65,0.00,,,0.00,WeatherCatV1.02B3,2013-06-24 14:50:00,
2013-06-24 10:55:00,85.6,72.5,29.97,WNW,284,7.0,9.0,65,0.00,,,0.00,WeatherCatV1.02B3,2013-06-24 14:55:00,
2013-06-24 11:00:00,85.5,73.7,29.97,WSW,257,0.0,7.0,68,0.00,,,0.00,WeatherCatV1.02B3,2013-06-24 15:00:00,
2013-06-24 11:05:00,85.7,73.0,29.97,SW,236,3.0,7.0,66,0.00,,,0.00,WeatherCatV1.02B3,2013-06-24 15:05:00,
2013-06-24 11:10:00,86.0,73.3,29.97,SW,224,0.0,6.0,66,0.00,,,0.00,WeatherCatV1.02B3,2013-06-24 15:10:00,
2013-06-24 11:15:00,86.3,74.0,29.97,SW,224,7.0,7.0,67,0.00,,,0.00,WeatherCatV1.02B3,2013-06-24 15:15:00,
2013-06-24 11:20:00,86.2,72.1,29.97,West,275,5.0,11.0,63,0.00,,,0.00,WeatherCatV1.02B3,2013-06-24 15:20:00,
2013-06-24 11:25:00,86.3,72.7,29.97,West,277,5.0,7.0,64,0.00,,,0.00,WeatherCatV1.02B3,2013-06-24 15:25:00,
2013-06-24 11:30:00,86.5,73.3,29.96,NW,307,7.0,7.0,65,0.00,,,0.00,WeatherCatV1.02B3,2013-06-24 15:30:00,
2013-06-24 11:35:00,86.8,72.7,29.96,WNW,283,3.0,11.0,63,0.00,,,0.00,WeatherCatV1.02B3,2013-06-24 15:35:00,
2013-06-24 11:40:00,87.0,72.4,29.96,WNW,293,7.0,10.0,62,0.00,,,0.00,WeatherCatV1.02B3,2013-06-24 15:40:00,
2013-06-24 11:45:00,87.5,73.3,29.96,NW,306,1.0,5.0,63,0.00,,,0.00,WeatherCatV1.02B3,2013-06-24 15:45:00,
2013-06-24 11:50:00,87.8,72.1,29.96,NW,314,2.0,10.0,60,0.00,,,0.00,WeatherCatV1.02B3,2013-06-24 15:50:00,
2013-06-24 11:55:00,87.7,73.0,29.96,West,275,2.0,5.0,62,0.00,,,0.00,WeatherCatV1.02B3,2013-06-24 15:55:00,
2013-06-24 12:00:00,87.9,72.7,29.96,WNW,299,5.0,9.0,61,0.00,,,0.00,WeatherCatV1.02B3,2013-06-24 16:00:00,
2013-06-24 12:05:00,87.8,72.6,29.96,WNW,288,4.0,10.0,61,0.00,,,0.00,WeatherCatV1.02B3,2013-06-24 16:05:00,
2013-06-24 12:10:00,87.7,72.5,29.96,WNW,290,0.0,7.0,61,0.00,,,0.00,WeatherCatV1.02B3,2013-06-24 16:10:00,
2013-06-24 12:15:00,87.9,72.7,29.96,WSW,248,9.0,12.0,61,0.00,,,0.00,WeatherCatV1.02B3,2013-06-24 16:15:00,
2013-06-24 12:20:00,88.2,73.5,29.96,WNW,301,7.0,9.0,62,0.00,,,0.00,WeatherCatV1.02B3,2013-06-24 16:20:00,
2013-06-24 12:25:00,88.5,72.8,29.96,WNW,288,4.0,9.0,60,0.00,,,0.00,WeatherCatV1.02B3,2013-06-24 16:25:00,
2013-06-24 12:30:00,88.9,73.2,29.96,West,279,2.0,8.0,60,0.00,,,0.00,WeatherCatV1.02B3,2013-06-24 16:30:00,
2013-06-24 12:35:00,88.8,73.1,29.96,WNW,289,8.0,11.0,60,0.00,,,0.00,WeatherCatV1.02B3,2013-06-24 16:35:00,
2013-06-24 12:40:00,88.6,72.9,29.96,WNW,290,3.0,4.0,60,0.00,,,0.00,WeatherCatV1.02B3,2013-06-24 16:40:00,
2013-06-24 12:45:00,88.8,74.1,29.96,NW,308,4.0,9.0,62,0.00,,,0.00,WeatherCatV1.02B3,2013-06-24 16:45:00,
2013-06-24 12:50:00,89.0,73.3,29.96,West,281,3.0,5.0,60,0.00,,,0.00,WeatherCatV1.02B3,2013-06-24 16:50:00,
2013-06-24 12:55:00,88.8,74.1,29.96,NW,313,2.0,5.0,62,0.00,,,0.00,WeatherCatV1.02B3,2013-06-24 16:55:00,
2013-06-24 13:00:00,88.9,73.2,29.96,West,267,4.0,7.0,60,0.00,,,0.00,WeatherCatV1.02B3,2013-06-24 17:00:00,
2013-06-24 13:05:00,88.7,72.0,29.96,WNW,302,8.0,13.0,58,0.00,,,0.00,WeatherCatV1.02B3,2013-06-24 17:05:00,
2013-06-24 13:10:00,88.8,74.1,29.96,WNW,290,0.0,4.0,62,0.00,,,0.00,WeatherCatV1.02B3,2013-06-24 17:10:00,
2013-06-24 13:15:00,89.0,73.3,29.95,WNW,289,3.0,7.0,60,0.00,,,0.00,WeatherCatV1.02B3,2013-06-24 17:15:00,
2013-06-24 13:20:00,89.6,72.8,29.95,West,265,6.0,6.0,58,0.00,,,0.00,WeatherCatV1.02B3,2013-06-24 17:20:00,
2013-06-24 13:25:00,89.7,72.4,29.95,WSW,248,3.0,10.0,57,0.00,,,0.00,WeatherCatV1.02B3,2013-06-24 17:25:00,
2013-06-24 13:30:00,89.7,72.9,29.95,WNW,286,4.0,7.0,58,0.00,,,0.00,WeatherCatV1.02B3,2013-06-24 17:30:00,
2013-06-24 13:35:00,89.7,71.9,29.95,West,261,4.0,11.0,56,0.00,,,0.00,WeatherCatV1.02B3,2013-06-24 17:35:00,
2013-06-24 13:40:00,89.6,71.3,29.95,West,270,4.0,9.0,55,0.00,,,0.00,WeatherCatV1.02B3,2013-06-24 17:40:00,
2013-06-24 13:45:00,89.6,72.3,29.95,WNW,284,7.0,8.0,57,0.00,,,0.00,WeatherCatV1.02B3,2013-06-24 17:45:00,
2013-06-24 13:50:00,89.8,72.5,29.95,NNW,337,0.0,5.0,57,0.00,,,0.00,WeatherCatV1.02B3,2013-06-24 17:50:00,
2013-06-24 13:55:00,89.7,71.3,29.94,West,270,3.0,5.0,55,0.00,,,0.00,WeatherCatV1.02B3,2013-06-24 17:55:00,
2013-06-24 14:00:00,90.0,72.2,29.94,SW,221,0.0,8.0,56,0.00,,,0.00,WeatherCatV1.02B3,2013-06-24 18:00:00,
2013-06-24 14:05:00,90.1,72.2,29.94,West,273,3.0,4.0,56,0.00,,,0.00,WeatherCatV1.02B3,2013-06-24 18:05:00,
2013-06-24 14:10:00,90.2,71.3,29.94,West,279,6.0,13.0,54,0.00,,,0.00,WeatherCatV1.02B3,2013-06-24 18:10:00,
2013-06-24 14:15:00,90.0,71.6,29.94,WNW,303,4.0,10.0,55,0.00,,,0.00,WeatherCatV1.02B3,2013-06-24 18:15:00,
2013-06-24 14:20:00,90.1,72.2,29.94,West,278,3.0,6.0,56,0.00,,,0.00,WeatherCatV1.02B3,2013-06-24 18:20:00,
2013-06-24 14:25:00,90.2,72.9,29.93,WNW,290,6.0,7.0,57,0.00,,,0.00,WeatherCatV1.02B3,2013-06-24 18:25:00,
2013-06-24 14:30:00,90.2,72.9,29.93,NW,304,4.0,9.0,57,0.00,,,0.00,WeatherCatV1.02B3,2013-06-24 18:30:00,
2013-06-24 14:35:00,90.0,73.2,29.93,WNW,293,5.0,10.0,58,0.00,,,0.00,WeatherCatV1.02B3,2013-06-24 18:35:00,
2013-06-24 14:40:00,89.9,73.1,29.93,SW,228,10.0,12.0,58,0.00,,,0.00,WeatherCatV1.02B3,2013-06-24 18:40:00,
2013-06-24 14:45:00,89.9,73.6,29.93,WNW,288,10.0,10.0,59,0.00,,,0.00,WeatherCatV1.02B3,2013-06-24 18:45:00,
2013-06-24 14:50:00,89.9,73.1,29.92,WNW,289,0.0,9.0,58,0.00,,,0.00,WeatherCatV1.02B3,2013-06-24 18:50:00,
2013-06-24 14:55:00,89.8,72.5,29.92,West,275,3.0,12.0,57,0.00,,,0.00,WeatherCatV1.02B3,2013-06-24 18:55:00,
2013-06-24 15:00:00,89.7,72.4,29.92,West,261,5.0,10.0,57,0.00,,,0.00,WeatherCatV1.02B3,2013-06-24 19:00:00,
2013-06-24 15:05:00,89.7,72.9,29.92,West,270,6.0,7.0,58,0.00,,,0.00,WeatherCatV1.02B3,2013-06-24 19:05:00,
2013-06-24 15:10:00,89.8,73.0,29.92,West,281,1.0,6.0,58,0.00,,,0.00,WeatherCatV1.02B3,2013-06-24 19:10:00,
2013-06-24 15:15:00,89.9,73.6,29.92,WSW,248,3.0,9.0,59,0.00,,,0.00,WeatherCatV1.02B3,2013-06-24 19:15:00,
2013-06-24 15:20:00,89.8,73.0,29.91,SSW,213,5.0,6.0,58,0.00,,,0.00,WeatherCatV1.02B3,2013-06-24 19:20:00,
2013-06-24 15:25:00,89.6,72.3,29.91,West,281,5.0,11.0,57,0.00,,,0.00,WeatherCatV1.02B3,2013-06-24 19:25:00,
2013-06-24 15:30:00,89.4,72.6,29.91,WNW,300,0.0,4.0,58,0.00,,,0.00,WeatherCatV1.02B3,2013-06-24 19:30:00,
2013-06-24 15:35:00,89.5,72.7,29.91,WSW,245,3.0,7.0,58,0.00,,,0.00,WeatherCatV1.02B3,2013-06-24 19:35:00,
2013-06-24 15:40:00,89.5,72.2,29.91,SSW,194,5.0,8.0,57,0.00,,,0.00,WeatherCatV1.02B3,2013-06-24 19:40:00,
2013-06-24 15:45:00,89.5,72.7,29.90,WNW,294,2.0,10.0,58,0.00,,,0.00,WeatherCatV1.02B3,2013-06-24 19:45:00,
2013-06-24 15:50:00,89.7,71.9,29.90,West,279,8.0,8.0,56,0.00,,,0.00,WeatherCatV1.02B3,2013-06-24 19:50:00,
2013-06-24 15:55:00,89.8,72.5,29.90,WNW,294,5.0,7.0,57,0.00,,,0.00,WeatherCatV1.02B3,2013-06-24 19:55:00,
2013-06-24 16:00:00,89.9,71.5,29.90,West,277,5.0,11.0,55,0.00,,,0.00,WeatherCatV1.02B3,2013-06-24 20:00:00,
2013-06-24 16:05:00,89.7,72.4,29.89,WSW,248,4.0,6.0,57,0.00,,,0.00,WeatherCatV1.02B3,2013-06-24 20:05:00,
2013-06-24 16:10:00,89.5,72.7,29.89,WNW,282,0.0,2.0,58,0.00,,,0.00,WeatherCatV1.02B3,2013-06-24 20:10:00,
2013-06-24 16:17:00,89.2,72.5,29.89,WNW,286,2.0,6.0,58,0.00,,,0.00,WeatherCatV1.02B3,2013-06-24 20:17:00,
2013-06-24 16:22:00,89.0,72.8,29.89,West,269,4.0,8.0,59,0.00,,,0.00,WeatherCatV1.02B3,2013-06-24 20:22:00,
2013-06-24 16:27:00,88.8,73.6,29.89,SW,232,0.0,0.0,61,0.00,,,0.00,WeatherCatV1.02B3,2013-06-24 20:27:00,
2013-06-24 16:32:00,88.5,73.3,29.89,SW,232,3.0,5.0,61,0.00,,,0.00,WeatherCatV1.02B3,2013-06-24 20:32:00,
2013-06-24 16:37:00,88.2,73.0,29.89,WSW,238,4.0,7.0,61,0.00,,,0.00,WeatherCatV1.02B3,2013-06-24 20:37:00,
2013-06-24 16:42:00,88.1,72.9,29.88,SSW,194,0.0,3.0,61,0.00,,,0.00,WeatherCatV1.02B3,2013-06-24 20:42:00,
2013-06-24 16:47:00,88.2,73.0,29.88,WNW,293,7.0,8.0,61,0.00,,,0.00,WeatherCatV1.02B3,2013-06-24 20:47:00,
2013-06-24 16:52:00,88.5,72.8,29.88,WSW,251,3.0,7.0,60,0.00,,,0.00,WeatherCatV1.02B3,2013-06-24 20:52:00,
2013-06-24 16:57:00,88.5,72.3,29.88,SSW,204,0.0,5.0,59,0.00,,,0.00,WeatherCatV1.02B3,2013-06-24 20:57:00,
2013-06-24 17:02:00,88.7,72.5,29.88,SW,221,3.0,3.0,59,0.00,,,0.00,WeatherCatV1.02B3,2013-06-24 21:02:00,
2013-06-24 17:07:00,88.7,72.5,29.89,WSW,257,1.0,6.0,59,0.00,,,0.00,WeatherCatV1.02B3,2013-06-24 21:07:00,
2013-06-24 17:12:00,88.4,72.7,29.89,SW,227,4.0,6.0,60,0.00,,,0.00,WeatherCatV1.02B3,2013-06-24 21:12:00,
2013-06-24 17:17:00,88.0,72.8,29.89,SW,235,0.0,3.0,61,0.00,,,0.00,WeatherCatV1.02B3,2013-06-24 21:17:00,
2013-06-24 17:22:00,87.7,72.5,29.89,SSW,212,4.0,4.0,61,0.00,,,0.00,WeatherCatV1.02B3,2013-06-24 21:22:00,
2013-06-24 17:27:00,87.4,72.3,29.88,WSW,241,1.0,3.0,61,0.00,,,0.00,WeatherCatV1.02B3,2013-06-24 21:27:00,
2013-06-24 17:32:00,87.2,72.6,29.88,WSW,248,1.0,3.0,62,0.00,,,0.00,WeatherCatV1.02B3,2013-06-24 21:32:00,
2013-06-24 17:37:00,87.0,72.8,29.88,WSW,238,2.0,5.0,63,0.00,,,0.00,WeatherCatV1.02B3,2013-06-24 21:37:00,
2013-06-24 17:42:00,86.9,73.7,29.88,SW,215,5.0,5.0,65,0.00,,,0.00,WeatherCatV1.02B3,2013-06-24 21:42:00,
2013-06-24 17:47:00,86.6,73.4,29.88,SW,223,5.0,5.0,65,0.00,,,0.00,WeatherCatV1.02B3,2013-06-24 21:47:00,
2013-06-24 17:52:00,86.3,73.6,29.88,SW,221,0.0,4.0,66,0.00,,,0.00,WeatherCatV1.02B3,2013-06-24 21:52:00,
2013-06-24 17:57:00,86.1,73.8,29.88,WSW,251,0.0,6.0,67,0.00,,,0.00,WeatherCatV1.02B3,2013-06-24 21:57:00,
2013-06-24 18:02:00,86.1,73.8,29.88,SSW,202,2.0,8.0,67,0.00,,,0.00,WeatherCatV1.02B3,2013-06-24 22:02:00,
2013-06-24 18:07:00,85.9,73.6,29.88,WSW,239,1.0,8.0,67,0.00,,,0.00,WeatherCatV1.02B3,2013-06-24 22:07:00,
2013-06-24 18:12:00,85.7,73.4,29.88,SSW,211,3.0,5.0,67,0.00,,,0.00,WeatherCatV1.02B3,2013-06-24 22:12:00,
2013-06-24 18:17:00,85.6,73.4,29.88,SW,215,3.0,8.0,67,0.00,,,0.00,WeatherCatV1.02B3,2013-06-24 22:17:00,
2013-06-24 18:22:00,85.4,72.7,29.88,West,271,0.0,5.0,66,0.00,,,0.00,WeatherCatV1.02B3,2013-06-24 22:22:00,
2013-06-24 18:27:00,85.3,73.5,29.88,SW,229,2.0,5.0,68,0.00,,,0.00,WeatherCatV1.02B3,2013-06-24 22:27:00,
2013-06-24 18:32:00,85.2,73.0,29.89,SW,236,4.0,4.0,67,0.00,,,0.00,WeatherCatV1.02B3,2013-06-24 22:32:00,
2013-06-24 18:37:00,85.0,73.2,29.89,West,270,0.0,4.0,68,0.00,,,0.00,WeatherCatV1.02B3,2013-06-24 22:37:00,
2013-06-24 18:42:00,84.9,73.1,29.89,SW,214,3.0,3.0,68,0.00,,,0.00,WeatherCatV1.02B3,2013-06-24 22:42:00,
2013-06-24 18:47:00,84.7,73.4,29.89,SSW,203,4.0,6.0,69,0.00,,,0.00,WeatherCatV1.02B3,2013-06-24 22:47:00,
2013-06-24 18:52:00,84.6,72.8,29.89,SW,219,5.0,7.0,68,0.00,,,0.00,WeatherCatV1.02B3,2013-06-24 22:52:00,
2013-06-24 18:57:00,84.4,72.7,29.89,WSW,247,3.0,5.0,68,0.00,,,0.00,WeatherCatV1.02B3,2013-06-24 22:57:00,
2013-06-24 19:02:00,84.3,72.6,29.89,SW,234,2.0,8.0,68,0.00,,,0.00,WeatherCatV1.02B3,2013-06-24 23:02:00,
2013-06-24 19:07:00,84.2,72.5,29.89,SW,215,3.0,6.0,68,0.00,,,0.00,WeatherCatV1.02B3,2013-06-24 23:07:00,
2013-06-24 19:12:00,84.0,72.3,29.89,WSW,239,2.0,7.0,68,0.00,,,0.00,WeatherCatV1.02B3,2013-06-24 23:12:00,
2013-06-24 19:17:00,83.8,72.1,29.89,WNW,289,3.0,5.0,68,0.00,,,0.00,WeatherCatV1.02B3,2013-06-24 23:17:00,
2013-06-24 19:22:00,83.7,72.4,29.89,SW,227,0.0,5.0,69,0.00,,,0.00,WeatherCatV1.02B3,2013-06-24 23:22:00,
2013-06-24 19:27:00,83.5,72.2,29.89,WNW,295,1.0,6.0,69,0.00,,,0.00,WeatherCatV1.02B3,2013-06-24 23:27:00,
2013-06-24 19:32:00,83.4,72.1,29.89,West,261,2.0,8.0,69,0.00,,,0.00,WeatherCatV1.02B3,2013-06-24 23:32:00,
2013-06-24 19:37:00,83.3,70.7,29.90,SSW,202,11.0,18.0,66,0.00,,,0.00,WeatherCatV1.02B3,2013-06-24 23:37:00,
2013-06-24 19:42:00,82.9,69.0,29.91,NNW,330,4.0,16.0,63,0.00,,,0.00,WeatherCatV1.02B3,2013-06-24 23:42:00,
2013-06-24 19:47:00,82.3,68.4,29.92,NNW,334,5.0,18.0,63,0.00,,,0.00,WeatherCatV1.02B3,2013-06-24 23:47:00,
2013-06-24 19:52:00,81.6,67.8,29.94,North,0,4.0,17.0,63,0.00,,,0.00,WeatherCatV1.02B3,2013-06-24 23:52:00,
2013-06-24 19:57:00,80.4,66.2,29.93,WNW,292,4.0,8.0,62,0.00,,,0.00,WeatherCatV1.02B3,2013-06-24 23:57:00,
2013-06-24 20:02:00,79.1,66.3,29.93,West,269,9.0,11.0,65,0.00,,,0.00,WeatherCatV1.02B3,2013-06-25 00:02:00,
2013-06-24 20:07:00,77.8,66.4,29.92,WNW,291,5.0,8.0,68,0.00,,,0.00,WeatherCatV1.02B3,2013-06-25 00:07:00,
2013-06-24 20:12:00,76.7,66.2,29.92,WNW,284,6.0,6.0,70,0.00,,,0.00,WeatherCatV1.02B3,2013-06-25 00:12:00,
2013-06-24 20:17:00,75.7,66.8,29.92,WNW,282,4.0,15.0,74,0.00,,,0.00,WeatherCatV1.02B3,2013-06-25 00:17:00,
2013-06-24 20:22:00,74.6,66.9,29.92,WNW,283,1.0,1.0,77,0.00,,,0.00,WeatherCatV1.02B3,2013-06-25 00:22:00,
2013-06-24 20:27:00,74.0,67.4,29.93,WNW,283,3.0,4.0,80,0.00,,,0.00,WeatherCatV1.02B3,2013-06-25 00:27:00,
2013-06-24 20:32:00,73.5,67.3,29.93,WNW,286,0.0,6.0,81,0.00,,,0.00,WeatherCatV1.02B3,2013-06-25 00:32:00,
2013-06-24 20:37:00,73.1,66.9,29.94,WNW,285,2.0,5.0,81,0.00,,,0.00,WeatherCatV1.02B3,2013-06-25 00:37:00,
2013-06-24 20:42:00,72.8,67.0,29.94,WNW,285,2.0,5.0,82,0.00,,,0.00,WeatherCatV1.02B3,2013-06-25 00:42:00,
2013-06-24 20:47:00,72.6,66.8,29.95,West,273,0.0,9.0,82,0.00,,,0.00,WeatherCatV1.02B3,2013-06-25 00:47:00,
2013-06-24 20:52:00,72.6,66.8,29.95,SW,217,0.0,9.0,82,0.00,,,0.00,WeatherCatV1.02B3,2013-06-25 00:52:00,
2013-06-24 20:57:00,72.6,67.1,29.96,SW,222,4.0,6.0,83,0.00,,,0.00,WeatherCatV1.02B3,2013-06-25 00:57:00,
2013-06-24 21:02:00,72.5,67.4,29.96,SW,236,7.0,9.0,84,0.00,,,0.00,WeatherCatV1.02B3,2013-06-25 01:02:00,
2013-06-24 21:07:00,72.2,67.4,29.97,WSW,257,4.0,11.0,85,0.00,,,0.01,WeatherCatV1.02B3,2013-06-25 01:07:00,
2013-06-24 21:12:00,71.8,67.4,29.97,WSW,258,1.0,6.0,86,0.00,,,0.01,WeatherCatV1.02B3,2013-06-25 01:12:00,
2013-06-24 21:17:00,71.5,67.4,29.97,West,259,0.0,5.0,87,0.06,,,0.02,WeatherCatV1.02B3,2013-06-25 01:17:00,
2013-06-24 21:22:00,71.2,67.8,29.96,West,259,0.0,2.0,89,0.13,,,0.03,WeatherCatV1.02B3,2013-06-25 01:22:00,
2013-06-24 21:27:00,71.1,68.0,29.96,West,259,0.0,0.0,90,0.07,,,0.03,WeatherCatV1.02B3,2013-06-25 01:27:00,
2013-06-24 21:32:00,70.9,68.1,29.96,West,259,0.0,0.0,91,0.05,,,0.04,WeatherCatV1.02B3,2013-06-25 01:32:00,
2013-06-24 21:37:00,70.6,67.8,29.95,West,259,0.0,0.0,91,0.13,,,0.05,WeatherCatV1.02B3,2013-06-25 01:37:00,
2013-06-24 21:42:00,70.4,68.0,29.95,West,259,0.0,0.0,92,0.09,,,0.05,WeatherCatV1.02B3,2013-06-25 01:42:00,
2013-06-24 21:48:00,70.1,67.7,29.95,West,259,0.0,0.0,92,0.09,,,0.06,WeatherCatV1.02B3,2013-06-25 01:48:00,
2013-06-24 21:53:00,69.9,67.5,29.95,West,259,0.0,0.0,92,0.06,,,0.07,WeatherCatV1.02B3,2013-06-25 01:53:00,
2013-06-24 21:58:00,69.9,67.8,29.95,West,259,0.0,0.0,93,0.06,,,0.07,WeatherCatV1.02B3,2013-06-25 01:58:00,
2013-06-24 22:03:00,69.7,67.6,29.95,West,259,0.0,0.0,93,0.05,,,0.07,WeatherCatV1.02B3,2013-06-25 02:03:00,
2013-06-24 22:08:00,69.6,67.5,29.95,West,259,0.0,0.0,93,0.04,,,0.07,WeatherCatV1.02B3,2013-06-25 02:08:00,
2013-06-24 22:13:00,69.6,67.5,29.95,West,259,0.0,0.0,93,0.00,,,0.07,WeatherCatV1.02B3,2013-06-25 02:13:00,
2013-06-24 22:18:00,69.5,67.4,29.94,West,259,0.0,0.0,93,0.00,,,0.07,WeatherCatV1.02B3,2013-06-25 02:18:00,
2013-06-24 22:23:00,69.4,67.6,29.94,West,259,0.0,0.0,94,0.00,,,0.07,WeatherCatV1.02B3,2013-06-25 02:23:00,
2013-06-24 22:28:00,69.4,67.6,29.94,West,259,0.0,0.0,94,0.00,,,0.07,WeatherCatV1.02B3,2013-06-25 02:28:00,
2013-06-24 22:33:00,69.4,67.6,29.94,West,259,0.0,0.0,94,0.00,,,0.07,WeatherCatV1.02B3,2013-06-25 02:33:00,
2013-06-24 22:38:00,69.3,67.5,29.94,West,259,0.0,0.0,94,0.00,,,0.07,WeatherCatV1.02B3,2013-06-25 02:38:00,
2013-06-24 22:43:00,69.3,67.5,29.95,West,259,0.0,1.0,94,0.00,,,0.07,WeatherCatV1.02B3,2013-06-25 02:43:00,
2013-06-24 22:48:00,69.3,67.5,29.94,West,259,0.0,0.0,94,0.00,,,0.07,WeatherCatV1.02B3,2013-06-25 02:48:00,
2013-06-24 22:53:00,69.3,67.5,29.94,West,259,0.0,0.0,94,0.00,,,0.07,WeatherCatV1.02B3,2013-06-25 02:53:00,
2013-06-24 22:58:00,69.2,67.4,29.94,West,259,0.0,0.0,94,0.00,,,0.07,WeatherCatV1.02B3,2013-06-25 02:58:00,
2013-06-24 23:03:00,69.1,67.3,29.94,West,259,0.0,0.0,94,0.00,,,0.07,WeatherCatV1.02B3,2013-06-25 03:03:00,
2013-06-24 23:08:00,69.0,67.2,29.94,West,259,0.0,1.0,94,0.00,,,0.07,WeatherCatV1.02B3,2013-06-25 03:08:00,
2013-06-24 23:13:00,69.0,67.2,29.93,West,259,1.0,3.0,94,0.00,,,0.07,WeatherCatV1.02B3,2013-06-25 03:13:00,
2013-06-24 23:18:00,68.8,67.0,29.93,West,259,0.0,0.0,94,0.00,,,0.07,WeatherCatV1.02B3,2013-06-25 03:18:00,
2013-06-24 23:23:00,68.5,66.7,29.93,SW,229,0.0,5.0,94,0.00,,,0.07,WeatherCatV1.02B3,2013-06-25 03:23:00,
2013-06-24 23:28:00,68.4,66.6,29.93,SW,229,0.0,0.0,94,0.00,,,0.07,WeatherCatV1.02B3,2013-06-25 03:28:00,
2013-06-24 23:33:00,68.3,66.5,29.93,SW,229,0.0,0.0,94,0.00,,,0.07,WeatherCatV1.02B3,2013-06-25 03:33:00,
2013-06-24 23:38:00,68.3,66.5,29.93,SW,229,0.0,0.0,94,0.00,,,0.07,WeatherCatV1.02B3,2013-06-25 03:38:00,
2013-06-24 23:43:00,68.1,66.3,29.93,SW,229,0.0,0.0,94,0.00,,,0.07,WeatherCatV1.02B3,2013-06-25 03:43:00,
2013-06-24 23:48:00,68.0,66.2,29.93,SW,229,0.0,4.0,94,0.00,,,0.07,WeatherCatV1.02B3,2013-06-25 03:48:00,
2013-06-24 23:53:00,67.9,66.1,29.93,SW,229,0.0,0.0,94,0.00,,,0.07,WeatherCatV1.02B3,2013-06-25 03:53:00,
2013-06-24 23:58:00,67.9,66.1,29.94,WSW,238,5.0,5.0,94,0.00,,,0.07,WeatherCatV1.02B3,2013-06-25 03:58:00,